Simultaneous Nadir Overpasses (SNOs) Predictions

Prediction of SNOs between GOES-16 and TERRA Satellite Orbit:

Table of predicted SNOs for the next 14.0 days since TLE Epoch: 8/15/2025
Index Date Time (GOES-16) GOES-16 Lat,Lon TERRA Lat,Lon Distance(km) Time Diff (sec)
1 08/16/2025 16:07:27 0.00,-104.75 -0.35,-102.99 199.83 80
2 08/17/2025 04:29:43 -0.01,-104.70 -0.64,-107.76 346.65 80
3 08/19/2025 04:07:48 -0.01,-104.70 0.32,-103.12 179.27 80
4 08/19/2025 16:29:53 0.02,-104.74 0.69,-107.84 353.45 80
5 08/21/2025 16:07:58 0.01,-104.73 -0.29,-103.21 172.97 80
6 08/22/2025 04:30:14 -0.02,-104.69 -0.69,-107.98 373.25 80
7 08/24/2025 04:08:19 -0.01,-104.69 0.30,-103.35 153.92 80
8 08/24/2025 16:30:24 0.02,-104.74 0.70,-108.07 378.46 80
9 08/26/2025 16:08:28 0.01,-104.74 -0.25,-103.43 149.22 80
10 08/27/2025 04:30:44 -0.02,-104.70 -0.73,-108.20 396.66 80
11 08/29/2025 04:08:48 -0.01,-104.71 0.24,-103.56 131.03 80
12 08/29/2025 16:30:52 0.03,-104.75 0.77,-108.28 401.40 80
